owner,sensor,date,latitude,longitude,vertical_datum,wind_speed,wind_to_direction,wind_speed_of_gust,qcFlag 
COMPS,ioos:station:USF.COMPS:C12:1,2017-05-01T00:05:00Z,27.4980,-83.7220,3.0,6.04,171.61,7.86,'1111122,1111122,1111122' 
COMPS,ioos:station:USF.COMPS:C12:1,2017-05-01T00:35:00Z,27.4980,-83.7220,3.0,5.8,176.9,6.98,'1111122,1111122,1111122' 
COMPS,ioos:station:USF.COMPS:C12:1,2017-05-01T01:05:00Z,27.4980,-83.7220,3.0,5.16,186.22,6.38,'1111122,1111122,1111122' 
COMPS,ioos:station:USF.COMPS:C12:1,2017-05-01T01:35:00Z,27.4980,-83.7220,3.0,4.76,182.8,6.21,'1111122,1111122,1111122' 
COMPS,ioos:station:USF.COMPS:C12:1,2017-05-01T02:05:00Z,27.4980,-83.7220,3.0,5.44,173.34,6.57,'1111122,1111122,1111122' 
COMPS,ioos:station:USF.COMPS:C12:1,2017-05-01T02:35:00Z,27.4980,-83.7220,3.0,5.34,169.18,6.53,'1111122,1111122,1111122' 
COMPS,ioos:station:USF.COMPS:C12:1,2017-05-01T03:05:00Z,27.4980,-83.7220,3.0,6.23,166.5,7.82,'1111122,1111122,1111122' 
COMPS,ioos:station:USF.COMPS:C12:1,2017-05-01T03:35:00Z,27.4980,-83.7220,3.0,6.52,160.88,7.83,'1111122,1111122,1111122' 
COMPS,ioos:station:USF.COMPS:C12:1,2017-05-01T04:05:00Z,27.4980,-83.7220,3.0,5.68,164.3,7.23,'1111122,1111122,1111122' 
COMPS,ioos:station:USF.COMPS:C12:1,2017-05-01T04:35:00Z,27.4980,-83.7220,3.0,5.71,165.22,7.32,'1111122,1111122,1111122' 
COMPS,ioos:station:USF.COMPS:C12:1,2017-05-01T05:05:00Z,27.4980,-83.7220,3.0,5.68,159.01,6.96,'1111122,1111122,1111122' 
COMPS,ioos:station:USF.COMPS:C12:1,2017-05-01T05:35:00Z,27.4980,-83.7220,3.0,5.26,155.27,6.69,'1111122,1111122,1111122' 
COMPS,ioos:station:USF.COMPS:C12:1,2017-05-01T06:05:00Z,27.4980,-83.7220,3.0,5.71,151.08,7.07,'1111122,1111122,1111122' 
COMPS,ioos:station:USF.COMPS:C12:1,2017-05-01T06:35:00Z,27.4980,-83.7220,3.0,7.03,142.02,8.65,'1111122,1111122,1111122' 
COMPS,ioos:station:USF.COMPS:C12:1,2017-05-01T07:05:00Z,27.4980,-83.7220,3.0,6.91,137.22,9.64,'1111122,1111122,1111122' 
COMPS,ioos:station:USF.COMPS:C12:1,2017-05-01T07:35:00Z,27.4980,-83.7220,3.0,8.36,142.16,10.79,'1111122,1111122,1111122' 
COMPS,ioos:station:USF.COMPS:C12:1,2017-05-01T08:05:00Z,27.4980,-83.7220,3.0,8.7,145.21,11.93,'1111122,1111122,1111122' 
COMPS,ioos:station:USF.COMPS:C12:1,2017-05-01T08:35:00Z,27.4980,-83.7220,3.0,9.09,142.65,11.25,'1111122,1111122,1111122' 
COMPS,ioos:station:USF.COMPS:C12:1,2017-05-01T09:05:00Z,27.4980,-83.7220,3.0,7.49,143.71,9.49,'1111122,1111122,1111122' 
COMPS,ioos:station:USF.COMPS:C12:1,2017-05-01T09:35:00Z,27.4980,-83.7220,3.0,6.71,145.68,8.14,'1111122,1111122,1111122' 
COMPS,ioos:station:USF.COMPS:C12:1,2017-05-01T10:05:00Z,27.4980,-83.7220,3.0,7.2,136.56,9.01,'1111122,1111122,1111122' 
COMPS,ioos:station:USF.COMPS:C12:1,2017-05-01T10:35:00Z,27.4980,-83.7220,3.0,6.53,137.29,8.06,'1111122,1111122,1111122' 
COMPS,ioos:station:USF.COMPS:C12:1,2017-05-01T11:05:00Z,27.4980,-83.7220,3.0,6.91,133.67,11.79,'1111122,1111122,1111122' 
COMPS,ioos:station:USF.COMPS:C12:1,2017-05-01T11:35:00Z,27.4980,-83.7220,3.0,5.73,133.57,7.05,'1111122,1111122,1111122' 
COMPS,ioos:station:USF.COMPS:C12:1,2017-05-01T12:05:00Z,27.4980,-83.7220,3.0,6.31,137.14,7.48,'1111122,1111122,1111122' 
COMPS,ioos:station:USF.COMPS:C12:1,2017-05-01T12:35:00Z,27.4980,-83.7220,3.0,5.63,138.2,6.91,'1111122,1111122,1111122' 
COMPS,ioos:station:USF.COMPS:C12:1,2017-05-01T13:05:00Z,27.4980,-83.7220,3.0,5.55,137.22,6.84,'1111122,1111122,1111122' 
COMPS,ioos:station:USF.COMPS:C12:1,2017-05-01T13:35:00Z,27.4980,-83.7220,3.0,5.05,138.06,6.32,'1111122,1111122,1111122' 
COMPS,ioos:station:USF.COMPS:C12:1,2017-05-01T14:05:00Z,27.4980,-83.7220,3.0,4.16,136.96,5.18,'1111122,1111122,1111122' 
COMPS,ioos:station:USF.COMPS:C12:1,2017-05-01T14:35:00Z,27.4980,-83.7220,3.0,4.22,137.11,5.35,'1111122,1111122,1111122' 
COMPS,ioos:station:USF.COMPS:C12:1,2017-05-01T15:05:00Z,27.4980,-83.7220,3.0,4.4,136.04,5.5,'1111122,1111122,1111122' 
COMPS,ioos:station:USF.COMPS:C12:1,2017-05-01T15:35:00Z,27.4980,-83.7220,3.0,4.41,131.81,5.43,'1111122,1111122,1111122' 
COMPS,ioos:station:USF.COMPS:C12:1,2017-05-01T16:05:00Z,27.4980,-83.7220,3.0,3.97,144.26,5.13,'1111122,1111122,1111122' 
COMPS,ioos:station:USF.COMPS:C12:1,2017-05-01T16:35:00Z,27.4980,-83.7220,3.0,3.94,138.08,5.49,'1111122,1111122,1111122' 
COMPS,ioos:station:USF.COMPS:C12:1,2017-05-01T17:05:00Z,27.4980,-83.7220,3.0,3.6,149.13,4.48,'1111122,1111122,1111122' 
COMPS,ioos:station:USF.COMPS:C12:1,2017-05-01T17:35:00Z,27.4980,-83.7220,3.0,4.12,155.33,5.16,'1111122,1111122,1111122' 
COMPS,ioos:station:USF.COMPS:C12:1,2017-05-01T18:05:00Z,27.4980,-83.7220,3.0,4.6,145.6,5.54,'1111122,1111122,1111122' 
COMPS,ioos:station:USF.COMPS:C12:1,2017-05-01T18:35:00Z,27.4980,-83.7220,3.0,5.81,181.67,7.36,'1111122,1111122,1111122' 
COMPS,ioos:station:USF.COMPS:C12:1,2017-05-01T19:05:00Z,27.4980,-83.7220,3.0,3.52,182.83,5.05,'1111122,1111122,1111122' 
COMPS,ioos:station:USF.COMPS:C12:1,2017-05-01T19:35:00Z,27.4980,-83.7220,3.0,6.5,193.14,9.28,'1111122,1111122,1111122' 
COMPS,ioos:station:USF.COMPS:C12:1,2017-05-01T20:05:00Z,27.4980,-83.7220,3.0,6.49,201.3,8.46,'1111122,1111122,1111122' 
COMPS,ioos:station:USF.COMPS:C12:1,2017-05-01T20:35:00Z,27.4980,-83.7220,3.0,5.39,159.55,6.88,'1111122,1111122,1111122' 
COMPS,ioos:station:USF.COMPS:C12:1,2017-05-01T21:05:00Z,27.4980,-83.7220,3.0,6.35,153.94,8.68,'1111122,1111122,1111122' 
COMPS,ioos:station:USF.COMPS:C12:1,2017-05-01T21:35:00Z,27.4980,-83.7220,3.0,7.53,161.65,9.47,'1111122,1111122,1111122' 
COMPS,ioos:station:USF.COMPS:C12:1,2017-05-01T22:05:00Z,27.4980,-83.7220,3.0,6.07,164.54,7.5,'1111122,1111122,1111122' 
COMPS,ioos:station:USF.COMPS:C12:1,2017-05-01T22:35:00Z,27.4980,-83.7220,3.0,5.72,177.7,7.35,'1111122,1111122,1111122' 
COMPS,ioos:station:USF.COMPS:C12:1,2017-05-01T23:05:00Z,27.4980,-83.7220,3.0,4.69,178.84,5.72,'1111122,1111122,1111122' 
COMPS,ioos:station:USF.COMPS:C12:1,2017-05-01T23:35:00Z,27.4980,-83.7220,3.0,4.39,179.02,5.64,'1111122,1111122,1111122' 
COMPS,ioos:station:USF.COMPS:C12:1,2017-05-02T00:05:00Z,27.4980,-83.7220,3.0,4.36,192.6,5.35,'1111122,1111122,1111122' 
COMPS,ioos:station:USF.COMPS:C12:1,2017-05-02T00:35:00Z,27.4980,-83.7220,3.0,4.26,183.0,6.05,'1111122,1111122,1111122' 
COMPS,ioos:station:USF.COMPS:C12:1,2017-05-02T01:05:00Z,27.4980,-83.7220,3.0,3.27,205.69,4.93,'1111122,1111122,1111122' 
COMPS,ioos:station:USF.COMPS:C12:1,2017-05-02T01:35:00Z,27.4980,-83.7220,3.0,2.95,201.76,4.23,'1111122,1111122,1111122' 
COMPS,ioos:station:USF.COMPS:C12:1,2017-05-02T02:05:00Z,27.4980,-83.7220,3.0,3.19,223.23,4.15,'1111122,1111122,1111122' 
COMPS,ioos:station:USF.COMPS:C12:1,2017-05-02T02:35:00Z,27.4980,-83.7220,3.0,1.87,197.11,2.52,'1111122,1111122,1111122' 
COMPS,ioos:station:USF.COMPS:C12:1,2017-05-02T03:05:00Z,27.4980,-83.7220,3.0,2.78,161.85,3.67,'1111122,1111122,1111122' 
COMPS,ioos:station:USF.COMPS:C12:1,2017-05-02T03:35:00Z,27.4980,-83.7220,3.0,2.87,161.4,3.67,'1111122,1111122,1111122' 
COMPS,ioos:station:USF.COMPS:C12:1,2017-05-02T04:05:00Z,27.4980,-83.7220,3.0,2.13,163.01,2.79,'1111122,1111122,1111122' 
COMPS,ioos:station:USF.COMPS:C12:1,2017-05-02T04:35:00Z,27.4980,-83.7220,3.0,2.03,171.6,2.94,'1111122,1111122,1111122' 
COMPS,ioos:station:USF.COMPS:C12:1,2017-05-02T05:05:00Z,27.4980,-83.7220,3.0,2.04,165.47,2.69,'1111122,1111122,1111122' 
COMPS,ioos:station:USF.COMPS:C12:1,2017-05-02T05:35:00Z,27.4980,-83.7220,3.0,1.69,192.77,2.48,'1111122,1111122,1111122' 
COMPS,ioos:station:USF.COMPS:C12:1,2017-05-02T06:05:00Z,27.4980,-83.7220,3.0,2.67,166.34,3.72,'1111122,1111122,1111122' 
COMPS,ioos:station:USF.COMPS:C12:1,2017-05-02T06:35:00Z,27.4980,-83.7220,3.0,2.99,173.17,3.82,'1111122,1111122,1111122' 
COMPS,ioos:station:USF.COMPS:C12:1,2017-05-02T07:05:00Z,27.4980,-83.7220,3.0,2.8,160.64,3.5,'1111122,1111122,1111122' 
COMPS,ioos:station:USF.COMPS:C12:1,2017-05-02T07:35:00Z,27.4980,-83.7220,3.0,2.18,147.47,2.71,'1111122,1111122,1111122' 
COMPS,ioos:station:USF.COMPS:C12:1,2017-05-02T08:05:00Z,27.4980,-83.7220,3.0,2.66,171.87,3.38,'1111122,1111122,1111122' 
COMPS,ioos:station:USF.COMPS:C12:1,2017-05-02T08:35:00Z,27.4980,-83.7220,3.0,3.34,165.61,4.44,'1111122,1111122,1111122' 
COMPS,ioos:station:USF.COMPS:C12:1,2017-05-02T09:05:00Z,27.4980,-83.7220,3.0,3.61,174.09,4.49,'1111122,1111122,1111122' 
COMPS,ioos:station:USF.COMPS:C12:1,2017-05-02T09:35:00Z,27.4980,-83.7220,3.0,2.48,180.81,3.61,'1111122,1111122,1111122' 
COMPS,ioos:station:USF.COMPS:C12:1,2017-05-02T10:05:00Z,27.4980,-83.7220,3.0,1.87,202.97,3.09,'1111122,1111122,1111122' 
COMPS,ioos:station:USF.COMPS:C12:1,2017-05-02T10:35:00Z,27.4980,-83.7220,3.0,1.21,240.9,1.75,'1111122,1111122,1111122' 
COMPS,ioos:station:USF.COMPS:C12:1,2017-05-02T11:05:00Z,27.4980,-83.7220,3.0,1.4,331.88,2.32,'1111122,1111122,1111122' 
COMPS,ioos:station:USF.COMPS:C12:1,2017-05-02T11:35:00Z,27.4980,-83.7220,3.0,2.53,5.0,3.37,'1111122,1111122,1111122' 
COMPS,ioos:station:USF.COMPS:C12:1,2017-05-02T12:05:00Z,27.4980,-83.7220,3.0,3.11,14.57,4.06,'1111122,1111122,1111122' 
COMPS,ioos:station:USF.COMPS:C12:1,2017-05-02T12:35:00Z,27.4980,-83.7220,3.0,3.18,19.48,4.17,'1111122,1111122,1111122' 
COMPS,ioos:station:USF.COMPS:C12:1,2017-05-02T13:05:00Z,27.4980,-83.7220,3.0,5.13,14.45,6.27,'1111122,1111122,1111122' 
COMPS,ioos:station:USF.COMPS:C12:1,2017-05-02T13:35:00Z,27.4980,-83.7220,3.0,5.44,9.89,6.55,'1111122,1111122,1111122' 
COMPS,ioos:station:USF.COMPS:C12:1,2017-05-02T14:05:00Z,27.4980,-83.7220,3.0,4.64,20.75,5.98,'1111122,1111122,1111122' 
COMPS,ioos:station:USF.COMPS:C12:1,2017-05-02T14:35:00Z,27.4980,-83.7220,3.0,5.39,13.03,6.62,'1111122,1111122,1111122' 
COMPS,ioos:station:USF.COMPS:C12:1,2017-05-02T15:05:00Z,27.4980,-83.7220,3.0,5.78,17.92,7.32,'1111122,1111122,1111122' 
COMPS,ioos:station:USF.COMPS:C12:1,2017-05-02T15:35:00Z,27.4980,-83.7220,3.0,6.75,18.08,8.39,'1111122,1111122,1111122' 
COMPS,ioos:station:USF.COMPS:C12:1,2017-05-02T16:05:00Z,27.4980,-83.7220,3.0,7.27,26.01,8.73,'1111122,1111122,1111122' 
COMPS,ioos:station:USF.COMPS:C12:1,2017-05-02T16:35:00Z,27.4980,-83.7220,3.0,7.43,24.76,8.94,'1111122,1111122,1111122' 
COMPS,ioos:station:USF.COMPS:C12:1,2017-05-02T17:05:00Z,27.4980,-83.7220,3.0,7.16,25.74,9.08,'1111122,1111122,1111122' 
COMPS,ioos:station:USF.COMPS:C12:1,2017-05-02T17:35:00Z,27.4980,-83.7220,3.0,6.89,27.97,8.95,'1111122,1111122,1111122' 
COMPS,ioos:station:USF.COMPS:C12:1,2017-05-02T18:05:00Z,27.4980,-83.7220,3.0,7.26,34.35,9.06,'1111122,1111122,1111122' 
COMPS,ioos:station:USF.COMPS:C12:1,2017-05-02T18:35:00Z,27.4980,-83.7220,3.0,7.4,32.89,9.27,'1111122,1111122,1111122' 
COMPS,ioos:station:USF.COMPS:C12:1,2017-05-02T19:05:00Z,27.4980,-83.7220,3.0,7.59,32.98,9.2,'1111122,1111122,1111122' 
COMPS,ioos:station:USF.COMPS:C12:1,2017-05-02T19:35:00Z,27.4980,-83.7220,3.0,7.29,35.78,9.14,'1111122,1111122,1111122' 
COMPS,ioos:station:USF.COMPS:C12:1,2017-05-02T20:05:00Z,27.4980,-83.7220,3.0,7.23,32.26,8.96,'1111122,1111122,1111122' 
COMPS,ioos:station:USF.COMPS:C12:1,2017-05-02T20:35:00Z,27.4980,-83.7220,3.0,6.42,27.18,7.76,'1111122,1111122,1111122' 
COMPS,ioos:station:USF.COMPS:C12:1,2017-05-02T21:05:00Z,27.4980,-83.7220,3.0,5.66,26.26,7.08,'1111122,1111122,1111122' 
COMPS,ioos:station:USF.COMPS:C12:1,2017-05-02T21:35:00Z,27.4980,-83.7220,3.0,5.58,17.3,6.8,'1111122,1111122,1111122' 
COMPS,ioos:station:USF.COMPS:C12:1,2017-05-02T22:05:00Z,27.4980,-83.7220,3.0,5.66,14.76,6.66,'1111122,1111122,1111122' 
COMPS,ioos:station:USF.COMPS:C12:1,2017-05-02T22:35:00Z,27.4980,-83.7220,3.0,5.7,9.95,6.81,'1111122,1111122,1111122' 
COMPS,ioos:station:USF.COMPS:C12:1,2017-05-02T23:05:00Z,27.4980,-83.7220,3.0,5.61,8.59,6.88,'1111122,1111122,1111122' 
COMPS,ioos:station:USF.COMPS:C12:1,2017-05-02T23:35:00Z,27.4980,-83.7220,3.0,5.31,18.53,6.5,'1111122,1111122,1111122' 
COMPS,ioos:station:USF.COMPS:C12:1,2017-05-03T00:05:00Z,27.4980,-83.7220,3.0,4.65,4.21,5.64,'1111122,1111122,1111122' 
COMPS,ioos:station:USF.COMPS:C12:1,2017-05-03T00:35:00Z,27.4980,-83.7220,3.0,4.88,2.67,6.04,'1111122,1111122,1111122' 
COMPS,ioos:station:USF.COMPS:C12:1,2017-05-03T01:05:00Z,27.4980,-83.7220,3.0,4.79,5.41,6.03,'1111122,1111122,1111122' 
COMPS,ioos:station:USF.COMPS:C12:1,2017-05-03T01:35:00Z,27.4980,-83.7220,3.0,4.04,351.63,5.01,'1111122,1111122,1111122' 
COMPS,ioos:station:USF.COMPS:C12:1,2017-05-03T02:05:00Z,27.4980,-83.7220,3.0,3.8,345.42,4.79,'1111122,1111122,1111122' 
COMPS,ioos:station:USF.COMPS:C12:1,2017-05-03T02:35:00Z,27.4980,-83.7220,3.0,3.22,345.17,3.97,'1111122,1111122,1111122' 
COMPS,ioos:station:USF.COMPS:C12:1,2017-05-03T03:05:00Z,27.4980,-83.7220,3.0,3.05,337.89,3.74,'1111122,1111122,1111122' 
COMPS,ioos:station:USF.COMPS:C12:1,2017-05-03T03:35:00Z,27.4980,-83.7220,3.0,2.75,330.72,3.65,'1111122,1111122,1111122' 
COMPS,ioos:station:USF.COMPS:C12:1,2017-05-03T04:05:00Z,27.4980,-83.7220,3.0,2.18,342.58,2.77,'1111122,1111122,1111122' 
COMPS,ioos:station:USF.COMPS:C12:1,2017-05-03T04:35:00Z,27.4980,-83.7220,3.0,3.58,12.24,4.32,'1111122,1111122,1111122' 
COMPS,ioos:station:USF.COMPS:C12:1,2017-05-03T05:05:00Z,27.4980,-83.7220,3.0,3.95,5.8,4.93,'1111122,1111122,1111122' 
COMPS,ioos:station:USF.COMPS:C12:1,2017-05-03T05:35:00Z,27.4980,-83.7220,3.0,4.59,16.82,5.6,'1111122,1111122,1111122' 
COMPS,ioos:station:USF.COMPS:C12:1,2017-05-03T06:05:00Z,27.4980,-83.7220,3.0,4.74,14.67,5.61,'1111122,1111122,1111122' 
COMPS,ioos:station:USF.COMPS:C12:1,2017-05-03T06:35:00Z,27.4980,-83.7220,3.0,3.9,22.64,4.99,'1111122,1111122,1111122' 
COMPS,ioos:station:USF.COMPS:C12:1,2017-05-03T07:05:00Z,27.4980,-83.7220,3.0,3.97,6.92,4.76,'1111122,1111122,1111122' 
COMPS,ioos:station:USF.COMPS:C12:1,2017-05-03T07:35:00Z,27.4980,-83.7220,3.0,4.41,15.36,5.43,'1111122,1111122,1111122' 
COMPS,ioos:station:USF.COMPS:C12:1,2017-05-03T08:05:00Z,27.4980,-83.7220,3.0,5.12,13.1,6.32,'1111122,1111122,1111122' 
COMPS,ioos:station:USF.COMPS:C12:1,2017-05-03T08:35:00Z,27.4980,-83.7220,3.0,5.58,16.69,6.64,'1111122,1111122,1111122' 
COMPS,ioos:station:USF.COMPS:C12:1,2017-05-03T09:05:00Z,27.4980,-83.7220,3.0,5.4,24.52,6.48,'1111122,1111122,1111122' 
COMPS,ioos:station:USF.COMPS:C12:1,2017-05-03T09:35:00Z,27.4980,-83.7220,3.0,5.32,33.33,6.49,'1111122,1111122,1111122' 
COMPS,ioos:station:USF.COMPS:C12:1,2017-05-03T10:05:00Z,27.4980,-83.7220,3.0,5.28,32.74,6.34,'1111122,1111122,1111122' 
COMPS,ioos:station:USF.COMPS:C12:1,2017-05-03T10:35:00Z,27.4980,-83.7220,3.0,5.11,34.22,6.17,'1111122,1111122,1111122' 
COMPS,ioos:station:USF.COMPS:C12:1,2017-05-03T11:05:00Z,27.4980,-83.7220,3.0,4.34,40.39,5.52,'1111122,1111122,1111122' 
COMPS,ioos:station:USF.COMPS:C12:1,2017-05-03T11:35:00Z,27.4980,-83.7220,3.0,3.97,42.54,4.88,'1111122,1111122,1111122' 
COMPS,ioos:station:USF.COMPS:C12:1,2017-05-03T12:05:00Z,27.4980,-83.7220,3.0,3.81,49.16,4.44,'1111122,1111122,1111122' 
COMPS,ioos:station:USF.COMPS:C12:1,2017-05-03T12:35:00Z,27.4980,-83.7220,3.0,3.34,60.4,3.86,'1111122,1111122,1111122' 
COMPS,ioos:station:USF.COMPS:C12:1,2017-05-03T13:05:00Z,27.4980,-83.7220,3.0,3.3,57.34,3.88,'1111122,1111122,1111122' 
COMPS,ioos:station:USF.COMPS:C12:1,2017-05-03T13:35:00Z,27.4980,-83.7220,3.0,3.7,70.32,4.48,'1111122,1111122,1111122' 
COMPS,ioos:station:USF.COMPS:C12:1,2017-05-03T14:05:00Z,27.4980,-83.7220,3.0,3.73,66.13,4.65,'1111122,1111122,1111122' 
COMPS,ioos:station:USF.COMPS:C12:1,2017-05-03T14:35:00Z,27.4980,-83.7220,3.0,3.8,85.36,4.77,'1111122,1111122,1111122' 
COMPS,ioos:station:USF.COMPS:C12:1,2017-05-03T15:05:00Z,27.4980,-83.7220,3.0,3.96,100.45,4.84,'1111122,1111122,1111122' 
COMPS,ioos:station:USF.COMPS:C12:1,2017-05-03T15:35:00Z,27.4980,-83.7220,3.0,3.98,100.29,4.75,'1111122,1111122,1111122' 
COMPS,ioos:station:USF.COMPS:C12:1,2017-05-03T16:05:00Z,27.4980,-83.7220,3.0,3.77,97.65,4.44,'1111122,1111122,1111122' 
COMPS,ioos:station:USF.COMPS:C12:1,2017-05-03T16:35:00Z,27.4980,-83.7220,3.0,3.8,102.9,4.8,'1111122,1111122,1111122' 
COMPS,ioos:station:USF.COMPS:C12:1,2017-05-03T17:05:00Z,27.4980,-83.7220,3.0,4.25,109.65,5.22,'1111122,1111122,1111122' 
COMPS,ioos:station:USF.COMPS:C12:1,2017-05-03T17:35:00Z,27.4980,-83.7220,3.0,4.7,110.95,5.73,'1111122,1111122,1111122' 
COMPS,ioos:station:USF.COMPS:C12:1,2017-05-03T18:05:00Z,27.4980,-83.7220,3.0,4.89,111.64,5.99,'1111122,1111122,1111122' 
COMPS,ioos:station:USF.COMPS:C12:1,2017-05-03T18:35:00Z,27.4980,-83.7220,3.0,4.45,126.04,5.27,'1111122,1111122,1111122' 
COMPS,ioos:station:USF.COMPS:C12:1,2017-05-03T19:05:00Z,27.4980,-83.7220,3.0,3.76,144.14,4.66,'1111122,1111122,1111122' 
COMPS,ioos:station:USF.COMPS:C12:1,2017-05-03T19:35:00Z,27.4980,-83.7220,3.0,2.62,160.07,3.48,'1111122,1111122,1111122' 
COMPS,ioos:station:USF.COMPS:C12:1,2017-05-03T20:05:00Z,27.4980,-83.7220,3.0,3.2,176.03,3.82,'1111122,1111122,1111122' 
COMPS,ioos:station:USF.COMPS:C12:1,2017-05-03T20:35:00Z,27.4980,-83.7220,3.0,3.52,184.3,4.18,'1111122,1111122,1111122' 
COMPS,ioos:station:USF.COMPS:C12:1,2017-05-03T21:05:00Z,27.4980,-83.7220,3.0,3.41,182.46,4.08,'1111122,1111122,1111122' 
COMPS,ioos:station:USF.COMPS:C12:1,2017-05-03T21:35:00Z,27.4980,-83.7220,3.0,3.05,190.52,3.69,'1111122,1111122,1111122' 
COMPS,ioos:station:USF.COMPS:C12:1,2017-05-03T22:05:00Z,27.4980,-83.7220,3.0,3.2,184.16,3.7,'1111122,1111122,1111122' 
COMPS,ioos:station:USF.COMPS:C12:1,2017-05-03T22:35:00Z,27.4980,-83.7220,3.0,2.51,197.96,3.1,'1111122,1111122,1111122' 
COMPS,ioos:station:USF.COMPS:C12:1,2017-05-03T23:05:00Z,27.4980,-83.7220,3.0,2.44,202.24,2.96,'1111122,1111122,1111122' 
COMPS,ioos:station:USF.COMPS:C12:1,2017-05-03T23:35:00Z,27.4980,-83.7220,3.0,2.1,210.15,2.57,'1111122,1111122,1111122' 
COMPS,ioos:station:USF.COMPS:C12:1,2017-05-04T00:05:00Z,27.4980,-83.7220,3.0,1.31,195.0,1.82,'1111122,1111122,1111122' 
COMPS,ioos:station:USF.COMPS:C12:1,2017-05-04T00:35:00Z,27.4980,-83.7220,3.0,2.23,161.77,2.69,'1111122,1111122,1111122' 
COMPS,ioos:station:USF.COMPS:C12:1,2017-05-04T01:05:00Z,27.4980,-83.7220,3.0,1.72,166.27,2.36,'1111122,1111122,1111122' 
COMPS,ioos:station:USF.COMPS:C12:1,2017-05-04T01:35:00Z,27.4980,-83.7220,3.0,1.49,148.3,1.87,'1111122,1111122,1111122' 
COMPS,ioos:station:USF.COMPS:C12:1,2017-05-04T02:05:00Z,27.4980,-83.7220,3.0,2.1,142.23,2.49,'1111122,1111122,1111122' 
COMPS,ioos:station:USF.COMPS:C12:1,2017-05-04T02:35:00Z,27.4980,-83.7220,3.0,2.4,113.22,3.12,'1111122,1111122,1111122' 
COMPS,ioos:station:USF.COMPS:C12:1,2017-05-04T03:05:00Z,27.4980,-83.7220,3.0,3.41,85.79,4.19,'1111122,1111122,1111122' 
COMPS,ioos:station:USF.COMPS:C12:1,2017-05-04T03:35:00Z,27.4980,-83.7220,3.0,2.95,79.49,3.54,'1111122,1111122,1111122' 
COMPS,ioos:station:USF.COMPS:C12:1,2017-05-04T04:05:00Z,27.4980,-83.7220,3.0,2.52,92.83,3.09,'1111122,1111122,1111122' 
COMPS,ioos:station:USF.COMPS:C12:1,2017-05-04T04:35:00Z,27.4980,-83.7220,3.0,3.73,92.52,4.5,'1111122,1111122,1111122' 
COMPS,ioos:station:USF.COMPS:C12:1,2017-05-04T05:05:00Z,27.4980,-83.7220,3.0,4.22,116.26,5.42,'1111122,1111122,1111122' 
COMPS,ioos:station:USF.COMPS:C12:1,2017-05-04T05:35:00Z,27.4980,-83.7220,3.0,4.03,110.29,5.33,'1111122,1111122,1111122' 
COMPS,ioos:station:USF.COMPS:C12:1,2017-05-04T06:05:00Z,27.4980,-83.7220,3.0,4.52,107.18,5.56,'1111122,1111122,1111122' 
COMPS,ioos:station:USF.COMPS:C12:1,2017-05-04T06:35:00Z,27.4980,-83.7220,3.0,5.38,115.17,6.61,'1111122,1111122,1111122' 
COMPS,ioos:station:USF.COMPS:C12:1,2017-05-04T07:05:00Z,27.4980,-83.7220,3.0,5.75,124.82,7.48,'1111122,1111122,1111122' 
COMPS,ioos:station:USF.COMPS:C12:1,2017-05-04T07:35:00Z,27.4980,-83.7220,3.0,6.54,131.24,8.24,'1111122,1111122,1111122' 
COMPS,ioos:station:USF.COMPS:C12:1,2017-05-04T08:05:00Z,27.4980,-83.7220,3.0,7.37,136.84,8.93,'1111122,1111122,1111122' 
COMPS,ioos:station:USF.COMPS:C12:1,2017-05-04T08:35:00Z,27.4980,-83.7220,3.0,7.75,140.74,10.07,'1111122,1111122,1111122' 
COMPS,ioos:station:USF.COMPS:C12:1,2017-05-04T09:05:00Z,27.4980,-83.7220,3.0,6.71,143.53,8.19,'1111122,1111122,1111122' 
COMPS,ioos:station:USF.COMPS:C12:1,2017-05-04T09:35:00Z,27.4980,-83.7220,3.0,5.82,143.89,7.08,'1111122,1111122,1111122' 
COMPS,ioos:station:USF.COMPS:C12:1,2017-05-04T10:05:00Z,27.4980,-83.7220,3.0,5.88,144.2,7.25,'1111122,1111122,1111122' 
COMPS,ioos:station:USF.COMPS:C12:1,2017-05-04T10:35:00Z,27.4980,-83.7220,3.0,6.01,145.53,7.25,'1111122,1111122,1111122' 
COMPS,ioos:station:USF.COMPS:C12:1,2017-05-04T11:05:00Z,27.4980,-83.7220,3.0,5.5,156.03,6.76,'1111122,1111122,1111122' 
COMPS,ioos:station:USF.COMPS:C12:1,2017-05-04T11:35:00Z,27.4980,-83.7220,3.0,7.15,155.95,9.21,'1111122,1111122,1111122' 
COMPS,ioos:station:USF.COMPS:C12:1,2017-05-04T12:05:00Z,27.4980,-83.7220,3.0,6.79,159.01,8.25,'1111122,1111122,1111122' 
COMPS,ioos:station:USF.COMPS:C12:1,2017-05-04T12:35:00Z,27.4980,-83.7220,3.0,7.0,164.02,9.17,'1111122,1111122,1111122' 
COMPS,ioos:station:USF.COMPS:C12:1,2017-05-04T13:05:00Z,27.4980,-83.7220,3.0,7.65,165.16,9.64,'1111122,1111122,1111122' 
COMPS,ioos:station:USF.COMPS:C12:1,2017-05-04T13:35:00Z,27.4980,-83.7220,3.0,7.14,165.98,8.64,'1111122,1111122,1111122' 
COMPS,ioos:station:USF.COMPS:C12:1,2017-05-04T14:05:00Z,27.4980,-83.7220,3.0,6.94,161.51,8.59,'1111122,1111122,1111122' 
COMPS,ioos:station:USF.COMPS:C12:1,2017-05-04T14:35:00Z,27.4980,-83.7220,3.0,6.02,160.36,7.25,'1111122,1111122,1111122' 
COMPS,ioos:station:USF.COMPS:C12:1,2017-05-04T15:05:00Z,27.4980,-83.7220,3.0,6.32,159.45,7.9,'1111122,1111122,1111122' 
COMPS,ioos:station:USF.COMPS:C12:1,2017-05-04T15:35:00Z,27.4980,-83.7220,3.0,6.72,164.01,8.32,'1111122,1111122,1111122' 
COMPS,ioos:station:USF.COMPS:C12:1,2017-05-04T16:05:00Z,27.4980,-83.7220,3.0,7.52,162.76,9.16,'1111122,1111122,1111122' 
COMPS,ioos:station:USF.COMPS:C12:1,2017-05-04T16:35:00Z,27.4980,-83.7220,3.0,7.23,160.54,9.1,'1111122,1111122,1111122' 
COMPS,ioos:station:USF.COMPS:C12:1,2017-05-04T17:05:00Z,27.4980,-83.7220,3.0,7.83,164.26,9.51,'1111122,1111122,1111122' 
COMPS,ioos:station:USF.COMPS:C12:1,2017-05-04T17:35:00Z,27.4980,-83.7220,3.0,7.86,163.56,10.2,'1111122,1111122,1111122' 
COMPS,ioos:station:USF.COMPS:C12:1,2017-05-04T18:05:00Z,27.4980,-83.7220,3.0,7.91,160.22,10.01,'1111122,1111122,1111122' 
COMPS,ioos:station:USF.COMPS:C12:1,2017-05-04T18:35:00Z,27.4980,-83.7220,3.0,8.48,155.69,10.25,'1111122,1111122,1111122' 
COMPS,ioos:station:USF.COMPS:C12:1,2017-05-04T19:05:00Z,27.4980,-83.7220,3.0,8.03,170.69,9.91,'1111122,1111122,1111122' 
COMPS,ioos:station:USF.COMPS:C12:1,2017-05-04T19:35:00Z,27.4980,-83.7220,3.0,7.78,174.7,9.77,'1111122,1111122,1111122' 
COMPS,ioos:station:USF.COMPS:C12:1,2017-05-04T20:05:00Z,27.4980,-83.7220,3.0,7.89,277.67,10.95,'1111122,1111122,1111122' 
COMPS,ioos:station:USF.COMPS:C12:1,2017-05-04T20:35:00Z,27.4980,-83.7220,3.0,3.96,269.25,6.21,'1111122,1111122,1111122' 
COMPS,ioos:station:USF.COMPS:C12:1,2017-05-04T21:05:00Z,27.4980,-83.7220,3.0,1.15,234.98,4.04,'1111122,1111122,1111122' 
COMPS,ioos:station:USF.COMPS:C12:1,2017-05-04T21:35:00Z,27.4980,-83.7220,3.0,2.42,139.14,3.81,'1111122,1111122,1111122' 
COMPS,ioos:station:USF.COMPS:C12:1,2017-05-04T22:05:00Z,27.4980,-83.7220,3.0,4.67,136.68,6.74,'1111122,1111122,1111122' 
COMPS,ioos:station:USF.COMPS:C12:1,2017-05-04T22:35:00Z,27.4980,-83.7220,3.0,5.33,135.26,6.77,'1111122,1111122,1111122' 
COMPS,ioos:station:USF.COMPS:C12:1,2017-05-04T23:05:00Z,27.4980,-83.7220,3.0,7.43,137.67,8.99,'1111122,1111122,1111122' 
COMPS,ioos:station:USF.COMPS:C12:1,2017-05-04T23:35:00Z,27.4980,-83.7220,3.0,7.15,147.14,8.96,'1111122,1111122,1111122' 
COMPS,ioos:station:USF.COMPS:C12:1,2017-05-05T00:05:00Z,27.4980,-83.7220,3.0,6.31,164.07,7.9,'1111122,1111122,1111122' 
COMPS,ioos:station:USF.COMPS:C12:1,2017-05-05T00:35:00Z,27.4980,-83.7220,3.0,5.73,185.22,7.41,'1111122,1111122,1111122' 
COMPS,ioos:station:USF.COMPS:C12:1,2017-05-05T01:05:00Z,27.4980,-83.7220,3.0,6.44,195.03,9.43,'1111122,1111122,1111122' 
COMPS,ioos:station:USF.COMPS:C12:1,2017-05-05T01:35:00Z,27.4980,-83.7220,3.0,6.27,190.25,7.86,'1111122,1111122,1111122' 
COMPS,ioos:station:USF.COMPS:C12:1,2017-05-05T02:05:00Z,27.4980,-83.7220,3.0,6.31,184.65,8.12,'1111122,1111122,1111122' 
COMPS,ioos:station:USF.COMPS:C12:1,2017-05-05T02:35:00Z,27.4980,-83.7220,3.0,6.02,201.89,8.35,'1111122,1111122,1111122' 